Weather reports worldwide

Advertisment
Konstanz, Germany (10929): temperature & dewpoint: 29.05.2020 19:00:00 - 04.06.2020 19:00:00 (CEST)Konstanz, Germany (10929): temperature 5cm & temperature -5cm: 29.05.2020 19:00:00 - 04.06.2020 19:00:00 (CEST)Konstanz, Germany (10929): temperature -20cm & temperature -100cm: 29.05.2020 19:00:00 - 04.06.2020 19:00:00 (CEST)Konstanz, Germany (10929): wind speed & gusts: 29.05.2020 19:00:00 - 04.06.2020 19:00:00 (CEST)Konstanz, Germany (10929): wind direction: 29.05.2020 19:00:00 - 04.06.2020 19:00:00 (CEST)Konstanz, Germany (10929): reduced air pressure: 29.05.2020 19:00:00 - 04.06.2020 19:00:00 (CEST)Konstanz, Germany (10929): visibility: 29.05.2020 19:00:00 - 04.06.2020 19:00:00 (CEST)Konstanz, Germany (10929): sunshine duration: 29.05.2020 19:00:00 - 04.06.2020 19:00:00 (CEST)Konstanz, Germany (10929): precipitation: 29.05.2020 19:00:00 - 04.06.2020 19:00:00 (CEST)
Date & Time tt [°C] td [°C] tt 5cm [°C] tt -5cm [°C] tt -20cm [°C] tt -100cm [°C] ff [km/h] ff [kn] fx [km/h] fx [kn] dd ppp [hPa] vv [km] sd [min] rr [mm]
04.06.2020 19:00:00 13,9 11,9 11,8 18,4 20,3 17,7 12 6 27 14 SSW 998,0 31 0 0,6
04.06.2020 18:00:00 14,1 12,1 12,2 18,8 20,4 17,6 9 5 23 13 SSW 997,3 16 0 1,2
04.06.2020 17:00:00 14,5 12,6 12,8 19,4 20,6 17,6 10 5 21 11 SW 997,7 13 0 1,6
04.06.2020 16:00:00 15,2 13,2 13,3 19,9 20,6 17,6 8 4 16 9 WSW 997,7 10 0 0,7
04.06.2020 15:00:00 15,9 13,7 14,7 20,3 20,6 17,6 9 5 17 9 SW 997,6 37 0 0,6
04.06.2020 14:00:00 15,4 12,4 13,3 20,3 20,6 17,6 8 4 23 13 W 998,1 10 0 0,5
04.06.2020 13:00:00 15,9 12,5 13,9 20,0 20,6 17,6 16 8 28 15 WSW 998,3 20 0 0,2
04.06.2020 12:00:00 16,4 13,2 15,7 19,5 20,6 17,6 13 7 28 15 WSW 998,1 36 0 0,0
04.06.2020 11:00:00 15,5 13,1 13,6 19,1 20,8 17,5 16 9 29 16 SW 998,4 41 0 0,0
04.06.2020 10:00:00 15,0 13,2 13,1 19,2 20,9 17,5 10 5 16 8 WSW 998,7 26 0 0,2
04.06.2020 09:00:00 14,9 13,0 13,3 19,2 21,2 17,5 5 3 13 7 SSW 998,8 24 0 0,4
04.06.2020 08:00:00 14,5 12,9 12,6 19,2 21,4 17,5 6 3 11 6 SW 999,0 23 0 0,4
04.06.2020 07:00:00 14,4 12,8 12,5 19,3 21,7 17,5 4 2 15 8 SW 999,2 14 0 0,4
04.06.2020 06:00:00 14,9 11,8 12,7 19,7 22,0 17,5 9 5 20 11 WSW 999,5 44 0 0,0
04.06.2020 05:00:00 15,2 11,6 12,8 20,2 22,3 17,4 9 5 24 13 SW 999,8 54 0 0,0
04.06.2020 04:00:00 16,2 10,6 14,5 20,6 22,7 17,4 13 7 29 16 WSW 1000,0 50 0 0,0
04.06.2020 03:00:00 16,7 10,7 14,8 21,1 23,0 17,4 11 6 26 14 W 1000,4 66 0 0,0
04.06.2020 02:00:00 17,2 10,5 14,9 21,7 23,4 17,4 10 5 18 10 WSW 1001,1 64 0 0,0
04.06.2020 01:00:00 17,7 11,2 15,5 22,3 23,8 17,4 4 2 7 4 WSW 1001,2 64 0 0,0
04.06.2020 00:00:00 18,3 10,0 16,1 22,9 24,2 17,4 5 3 13 7 WSW 1001,6 70 0 0,0
03.06.2020 23:00:00 18,8 10,0 16,7 23,6 24,6 17,4 8 5 17 9 W 1002,2 66 0 0,0
03.06.2020 22:00:00 19,1 10,2 16,5 24,6 25,0 17,3 8 5 38 20 WSW 1002,7 61 0 0,0
03.06.2020 21:00:00 20,1 9,4 18,1 26,2 25,3 17,3 11 6 29 16 WSW 1002,2 70 3 0,0
03.06.2020 20:00:00 21,0 9,3 20,1 27,8 25,4 17,3 22 12 35 19 SSW 1002,0 39 10 0,0
03.06.2020 19:00:00 22,8 8,0 22,2 29,6 25,2 17,3 7 4 14 8 S 1001,6 70 30 0,0
03.06.2020 18:00:00 24,0 7,7 24,1 30,5 24,9 17,3 6 3 16 9 NNE 1001,3 46 59 0,0
03.06.2020 17:00:00 22,9 8,7 24,5 29,8 24,6 17,3 11 6 22 12 N 1002,8 37 40 0,0
03.06.2020 16:00:00 21,8 8,5 21,8 29,2 24,4 17,3 8 4 32 18 N 1003,4 67 18 0,0
03.06.2020 15:00:00 21,1 7,9 21,0 30,1 23,8 17,3 20 11 43 23 N 1004,4 48 13 0,0
03.06.2020 14:00:00 25,1 12,0 26,9 31,8 22,9 17,2 8 4 17 9 SE 1003,6 32 59 0,0
03.06.2020 13:00:00 24,4 11,3 27,9 29,7 21,9 17,2 10 5 16 9 E 1004,7 20 60 0,0
03.06.2020 12:00:00 22,9 10,4 26,6 26,9 21,1 17,2 9 5 13 7 E 1005,8 29 60 0,0
03.06.2020 11:00:00 21,9 11,7 24,0 23,8 20,6 17,2 4 2 9 5 E 1006,9 36 60 0,0
03.06.2020 10:00:00 18,8 10,9 20,1 20,7 20,5 17,2 4 2 10 5 E 1008,0 39 60 0,0
03.06.2020 09:00:00 17,3 10,9 15,3 18,9 20,7 17,1 3 1 8 4 W 1008,6 42 54 0,0
03.06.2020 08:00:00 15,2 10,5 14,0 18,5 20,9 17,1 2 1 5 3 ENE 1009,3 42 48 0,0
03.06.2020 07:00:00 13,4 10,7 11,3 18,2 21,3 17,1 3 2 6 3 NNE 1009,9 41 3 0,0
03.06.2020 06:00:00 12,4 9,3 9,2 18,5 21,7 17,1 4 2 5 3 N 1010,3 47 0 0,0
03.06.2020 05:00:00 12,9 9,6 9,7 19,0 22,2 17,1 5 3 9 5 N 1010,4 52 0 0,0
03.06.2020 04:00:00 14,1 9,8 10,4 19,7 22,6 17,1 3 2 9 5 NW 1010,7 56 0 0,0
03.06.2020 03:00:00 14,4 9,6 10,7 20,4 23,1 17,0 4 2 7 4 NE 1011,1 53 0 0,0
03.06.2020 02:00:00 16,5 12,0 12,9 21,2 23,6 17,0 7 4 10 5 WNW 1011,3 55 0 0,0
03.06.2020 01:00:00 16,4 9,2 11,6 22,1 24,2 17,0 5 3 8 5 W 1011,8 52 0 0,0
03.06.2020 00:00:00 17,4 9,4 12,7 23,1 24,8 17,0 0 0 6 3 N 1011,8 70 0 0,0
02.06.2020 23:00:00 19,0 9,0 13,9 24,4 25,3 17,0 4 2 9 5 SSE 1011,9 70 0 0,0
02.06.2020 22:00:00 19,4 8,5 14,9 26,0 25,8 17,0 5 3 10 5 ENE 1011,6 70 0 0,0
02.06.2020 21:00:00 22,0 8,6 17,8 28,2 26,1 17,0 6 3 11 6 E 1011,0 70 54 0,0
02.06.2020 20:00:00 24,8 6,6 23,7 30,6 26,1 17,0 4 2 11 6 ENE 1010,8 70 60 0,0
02.06.2020 19:00:00 26,1 6,1 25,6 32,3 25,8 17,0 5 3 13 7 NE 1011,0 57 60 0,0
02.06.2020 18:00:00 26,5 5,7 27,0 33,4 25,3 17,0 6 3 16 9 N 1011,6 41 60 0,0
02.06.2020 17:00:00 26,8 6,4 27,7 33,9 24,6 16,9 6 3 16 9 N 1012,1 47 60 0,0
02.06.2020 16:00:00 26,5 7,0 27,8 33,6 23,7 16,9 7 4 18 10 N 1012,8 45 60 0,0
02.06.2020 15:00:00 26,3 7,0 29,3 32,6 22,7 16,9 8 4 16 9 E 1013,4 43 60 0,0
02.06.2020 14:00:00 25,9 7,9 28,4 30,8 21,6 16,9 8 4 18 10 ESE 1014,0 34 60 0,0
02.06.2020 13:00:00 24,2 7,2 27,4 28,4 20,6 16,9 9 5 17 9 ESE 1014,9 35 60 0,0
02.06.2020 12:00:00 22,2 8,5 24,6 25,5 19,8 16,9 6 4 14 8 SSE 1015,7 38 60 0,0
02.06.2020 11:00:00 20,7 9,5 23,2 22,4 19,3 16,9 8 4 11 6 S 1016,5 22 60 0,0
02.06.2020 10:00:00 19,2 9,2 19,9 19,0 19,2 16,8 5 3 10 5 S 1017,1 33 60 0,0
02.06.2020 09:00:00 17,3 7,4 14,6 16,9 19,3 16,8 4 2 8 5 S 1017,5 40 60 0,0
02.06.2020 08:00:00 14,4 8,0 13,8 16,5 19,6 16,8 4 2 6 3 WSW 1018,0 32 60 0,0
02.06.2020 07:00:00 12,0 8,6 9,2 16,4 20,1 16,8 4 2 7 4 WSW 1018,2 30 60 0,0
02.06.2020 06:00:00 11,0 7,0 7,1 16,8 20,5 16,8 5 3 12 6 N 1018,1 38 3 0,0
02.06.2020 05:00:00 12,0 6,9 9,2 17,4 21,0 16,8 6 4 10 5 NW 1017,6 44 0 0,0
02.06.2020 04:00:00 12,2 7,3 8,4 18,1 21,5 16,8 6 3 9 5 WSW 1017,4 44 0 0,0
02.06.2020 03:00:00 13,4 7,7 10,6 18,9 22,0 16,7 6 4 12 6 W 1017,3 45 0 0,0
02.06.2020 02:00:00 14,5 6,9 10,4 19,7 22,6 16,7 4 2 19 11 NNE 1017,5 48 0 0,0
02.06.2020 01:00:00 15,9 6,6 10,7 20,7 23,1 16,7 4 2 9 5 N 1017,8 48 0 0,0
02.06.2020 00:00:00 17,1 6,7 13,0 21,9 23,7 16,7 6 3 14 8 N 1017,6 51 0 0,0
01.06.2020 23:00:00 17,7 7,3 13,4 23,2 24,2 16,7 7 4 20 11 NNE 1017,4 49 0 0,0
01.06.2020 22:00:00 19,4 6,3 15,8 24,7 24,7 16,7 9 5 21 12 NE 1016,9 53 3 0,0
01.06.2020 21:00:00 21,0 5,6 18,2 26,8 25,1 16,7 12 6 23 12 NE 1016,3 61 60 0,0
01.06.2020 20:00:00 23,3 6,0 22,0 29,4 25,1 16,7 11 6 27 15 NE 1015,8 47 60 0,0
01.06.2020 19:00:00 24,5 5,3 24,4 31,3 24,8 16,7 12 7 24 13 NE 1015,5 35 60 0,0
01.06.2020 18:00:00 25,3 5,5 27,8 32,4 24,3 16,7 12 6 22 12 NE 1015,4 30 60 0,0
01.06.2020 17:00:00 25,3 5,8 27,5 32,9 23,6 16,7 12 6 24 13 ENE 1015,6 25 60 0,0
01.06.2020 16:00:00 25,7 6,5 27,4 32,7 22,6 16,7 9 5 18 10 ENE 1015,7 32 60 0,0
01.06.2020 15:00:00 25,2 7,2 27,9 31,7 21,5 16,7 9 5 21 12 ENE 1016,1 27 60 0,0
01.06.2020 14:00:00 25,3 8,4 27,8 29,8 20,4 16,7 7 4 16 9 ESE 1016,5 24 60 0,0
01.06.2020 13:00:00 21,8 7,1 25,6 27,2 19,3 16,7 4 2 16 8 SW 1017,2 34 60 0,0
01.06.2020 12:00:00 20,2 7,0 23,4 24,2 18,5 16,7 6 4 19 11 ESE 1017,9 33 60 0,0
01.06.2020 11:00:00 19,3 6,2 21,2 20,9 17,9 16,7 8 5 19 11 E 1018,3 36 59 0,0
01.06.2020 10:00:00 17,8 6,5 18,5 17,5 17,8 16,7 6 3 13 7 E 1018,5 52 60 0,0
01.06.2020 09:00:00 15,0 5,6 12,5 15,4 17,9 16,6 6 3 13 7 NE 1019,0 41 60 0,0
01.06.2020 08:00:00 13,5 6,2 12,7 15,2 18,2 16,6 6 3 12 7 NE 1019,2 29 60 0,0
01.06.2020 07:00:00 11,6 5,7 8,1 15,0 18,5 16,6 4 2 11 6 NNE 1019,5 45 60 0,0
01.06.2020 06:00:00 11,1 5,2 7,8 15,3 18,9 16,6 6 4 17 9 NE 1019,2 68 3 0,0
01.06.2020 05:00:00 11,9 5,1 9,0 15,8 19,3 16,6 10 5 24 13 ENE 1019,0 64 0 0,0
01.06.2020 04:00:00 12,3 5,0 9,9 16,3 19,7 16,6 11 6 26 14 NE 1019,1 57 0 0,0
01.06.2020 03:00:00 12,6 4,6 9,7 16,9 20,1 16,6 10 5 25 14 NE 1019,3 54 0 0,0
01.06.2020 02:00:00 13,4 4,5 10,7 17,6 20,6 16,6 9 5 18 10 NE 1019,3 64 0 0,0
01.06.2020 01:00:00 13,1 4,8 10,4 18,3 21,1 16,6 9 5 17 9 NNE 1019,5 57 0 0,0
01.06.2020 00:00:00 14,3 4,4 10,6 19,3 21,6 16,6 5 3 22 12 N 1019,4 58 0 0,0
31.05.2020 23:00:00 15,4 4,2 12,6 20,3 22,1 16,6 10 5 23 12 ENE 1019,1 62 0 0,0
31.05.2020 22:00:00 16,1 4,0 13,5 21,6 22,6 16,6 10 5 22 12 ENE 1018,8 55 2 0,0
31.05.2020 21:00:00 17,0 3,8 14,5 23,4 22,9 16,6 11 6 25 13 ENE 1018,2 64 60 0,0
31.05.2020 20:00:00 18,4 3,3 17,2 25,6 23,0 16,6 15 8 27 15 NE 1017,7 39 60 0,0
31.05.2020 19:00:00 19,7 3,5 19,9 26,7 23,0 16,6 11 6 24 13 NE 1017,3 49 50 0,0
31.05.2020 18:00:00 19,9 4,3 20,4 28,1 22,7 16,6 11 6 29 16 NE 1017,2 53 60 0,0
31.05.2020 17:00:00 20,6 3,6 22,7 29,3 22,1 16,6 11 6 28 15 ENE 1016,9 32 60 0,0
31.05.2020 16:00:00 20,3 2,6 21,7 29,6 21,3 16,6 10 5 28 15 NE 1017,1 28 60 0,0
31.05.2020 15:00:00 20,6 3,0 23,0 29,1 20,4 16,6 13 7 27 14 ENE 1017,1 21 60 0,0
31.05.2020 14:00:00 20,0 2,5 22,9 27,6 19,4 16,6 15 8 30 16 ENE 1017,2 30 60 0,0
31.05.2020 13:00:00 19,2 1,9 22,8 25,2 18,4 16,6 9 5 31 17 ENE 1017,4 70 60 0,0
31.05.2020 12:00:00 18,7 3,4 21,3 22,6 17,6 16,6 13 7 26 14 ENE 1017,6 26 60 0,0
31.05.2020 11:00:00 17,3 5,2 18,9 19,6 17,1 16,6 9 5 16 9 ENE 1018,0 50 60 0,0
31.05.2020 10:00:00 15,7 5,2 16,4 16,3 17,0 16,6 12 6 21 11 ESE 1018,1 22 60 0,0
31.05.2020 09:00:00 14,0 5,3 11,6 14,3 17,1 16,5 10 5 22 12 ENE 1018,4 13 60 0,0
31.05.2020 08:00:00 11,5 5,3 10,9 14,0 17,4 16,5 8 4 16 8 NE 1018,6 15 60 0,0
31.05.2020 07:00:00 10,1 5,5 7,7 13,8 17,7 16,5 6 3 14 8 N 1018,8 32 45 0,0
31.05.2020 06:00:00 9,2 5,2 6,7 14,1 18,1 16,5 7 4 16 8 NNE 1018,9 43 0 0,0
31.05.2020 05:00:00 9,2 4,9 6,5 14,7 18,5 16,5 7 4 14 8 NNE 1018,9 48 0 0,0
31.05.2020 04:00:00 9,9 4,8 6,5 15,3 19,0 16,5 7 4 13 7 NNE 1019,1 49 0 0,0
31.05.2020 03:00:00 10,0 5,0 6,6 16,0 19,4 16,5 7 4 12 7 NNE 1018,9 45 0 0,0
31.05.2020 02:00:00 11,3 5,3 8,6 16,7 19,9 16,5 9 5 20 11 NNE 1018,9 50 0 0,0
31.05.2020 01:00:00 12,0 5,2 9,5 17,6 20,3 16,5 9 5 16 8 NNE 1019,3 52 0 0,0
31.05.2020 00:00:00 12,8 4,7 10,1 18,6 20,8 16,5 8 5 18 10 NE 1019,6 53 0 0,0
30.05.2020 23:00:00 14,2 4,9 12,2 19,7 21,2 16,5 11 6 19 10 E 1019,4 55 0 0,0
30.05.2020 22:00:00 15,1 5,2 13,4 20,8 21,5 16,5 11 6 22 12 E 1019,1 59 0 0,0
30.05.2020 21:00:00 15,8 5,2 14,0 22,0 21,8 16,5 10 5 24 13 ENE 1018,4 55 2 0,0
30.05.2020 20:00:00 16,8 4,9 16,0 23,6 21,8 16,5 13 7 31 17 ENE 1018,2 47 56 0,0
30.05.2020 19:00:00 17,5 4,2 16,9 24,5 21,8 16,5 11 6 31 17 NE 1017,7 55 25 0,0
30.05.2020 18:00:00 18,9 4,9 20,8 25,1 21,6 16,5 11 6 32 17 NNE 1017,5 45 20 0,0
30.05.2020 17:00:00 18,8 5,2 20,0 25,9 21,4 16,5 16 9 32 17 NE 1017,6 32 21 0,0
30.05.2020 16:00:00 18,5 3,3 19,5 25,7 21,0 16,5 11 6 29 15 ENE 1017,7 48 7 0,0
30.05.2020 15:00:00 18,9 3,6 19,3 27,1 20,3 16,5 11 6 30 16 NE 1017,8 40 27 0,0
30.05.2020 14:00:00 20,1 3,2 22,4 27,0 19,4 16,5 16 8 32 18 NE 1017,9 33 58 0,0
30.05.2020 13:00:00 19,4 2,9 21,7 24,9 18,5 16,5 12 7 33 18 NE 1018,4 19 60 0,0
30.05.2020 12:00:00 18,9 4,9 21,4 22,3 17,7 16,5 15 8 29 16 NE 1018,6 36 58 0,0
30.05.2020 11:00:00 17,8 5,8 18,9 19,8 17,2 16,5 16 9 29 15 NE 1019,2 30 60 0,0
30.05.2020 10:00:00 16,4 5,8 17,0 16,7 17,1 16,5 12 6 22 12 ENE 1019,5 20 60 0,0
30.05.2020 09:00:00 14,7 6,3 12,7 14,7 17,2 16,4 10 5 22 12 ENE 1020,0 18 60 0,0
30.05.2020 08:00:00 12,1 6,0 10,7 14,3 17,4 16,4 9 5 24 13 NE 1020,3 35 60 0,0
30.05.2020 07:00:00 11,3 5,4 9,2 14,2 17,8 16,4 11 6 24 13 NE 1020,4 12 59 0,0
30.05.2020 06:00:00 10,9 5,1 8,3 14,4 18,1 16,4 9 5 23 12 NE 1020,2 45 0 0,0
30.05.2020 05:00:00 11,0 5,2 8,0 14,9 18,5 16,4 8 4 22 12 ENE 1020,2 55 0 0,0
30.05.2020 04:00:00 11,3 5,3 8,8 15,4 19,0 16,4 13 7 28 15 NE 1020,3 52 0 0,0
30.05.2020 03:00:00 11,7 5,8 9,1 16,0 19,4 16,4 11 6 29 16 NE 1020,5 50 0 0,0
30.05.2020 02:00:00 12,1 6,0 9,5 16,6 19,9 16,4 8 5 21 11 NE 1020,5 48 0 0,0
30.05.2020 01:00:00 12,4 6,3 9,8 17,4 20,4 16,4 7 4 22 12 NE 1020,8 52 0 0,0
30.05.2020 00:00:00 12,9 6,2 10,2 18,3 20,9 16,4 8 5 28 15 NE 1020,9 57 0 0,0
29.05.2020 23:00:00 13,6 5,5 11,2 19,3 21,4 16,4 14 8 31 17 NE 1020,9 70 0 0,0
29.05.2020 22:00:00 14,3 5,4 12,0 20,7 21,9 16,4 12 6 31 17 NE 1021,1 70 1 0,0
29.05.2020 21:00:00 15,5 5,7 13,4 22,6 22,2 16,4 19 11 35 19 NE 1020,7 38 60 0,0
29.05.2020 20:00:00 17,3 5,8 16,2 24,9 22,3 16,4 14 8 39 21 ENE 1020,3 34 60 0,0
29.05.2020 19:00:00 18,7 5,5 19,2 26,6 22,1 16,4 18 10 35 19 NE 1020,1 21 55 0,0

tt = temperature
td = dewpoint
tt 5cm = temperature 5cm
tt -5cm = temperature -5cm
tt -20cm = temperature -20cm
tt -100cm = temperature -100cm
ff = wind speed
fx = gusts
dd = wind direction
ppp = reduced air pressure
vv = visibility
sd = sunshine duration
rr = precipitation

Next stations